This is the latest recevied weather packets stored in our database for station/object DD3FC-1. If no packets are shown the sender has not sent any weather packets the latest 1 day(s).
| Time | Temp. | Humidity | Pressure | Rain* | Wind** | Luminosity | Snow |
|---|---|---|---|---|---|---|---|
| 1777996826 | 16.67° C | 80% | 1008.5 hPa | 0 mm | 0 m/s | - | - |
| 1777996226 | 16.67° C | 80% | 1008.4 hPa | 0 mm | 0 m/s | - | - |
| 1777995626 | 16.67° C | 83% | 1008.5 hPa | 0 mm | 0 m/s | - | - |
| 1777995026 | 16.11° C | 84% | 1008.4 hPa | 0 mm | 0 m/s | - | - |
| 1777994426 | 16.11° C | 83% | 1008.5 hPa | 0 mm | 0 m/s | - | - |
| 1777993826 | 16.11° C | 84% | 1008.6 hPa | 0 mm | 0 m/s | - | - |
| 1777993226 | 16.67° C | 85% | 1008.8 hPa | 0 mm | 0 m/s | - | - |
| 1777992626 | 16.67° C | 84% | 1009 hPa | 0.25 mm | 0 m/s | - | - |
| 1777992026 | 16.11° C | 84% | 1009.1 hPa | 0.25 mm | 0 m/s | - | - |
| 1777991426 | 16.11° C | 84% | 1009.2 hPa | 0.51 mm | 0 m/s | - | - |
| 1777990826 | 16.11° C | 84% | 1009.3 hPa | 0.51 mm | 0.45 m/s, 276° | - | - |
| 1777990226 | 16.67° C | 84% | 1009.2 hPa | 0.51 mm | 0 m/s | - | - |
| 1777989626 | 16.67° C | 81% | 1009.3 hPa | 0.51 mm | 0.45 m/s, 282° | - | - |
| 1777989026 | 16.67° C | 80% | 1009.4 hPa | 0.25 mm | 0 m/s | - | - |
| 1777988427 | 17.22° C | 76% | 1009.4 hPa | 0.25 mm | 0 m/s | - | - |
| 1777987832 | 17.78° C | 73% | 1009.3 hPa | 0 mm | 0 m/s | - | - |
| 1777987227 | 18.89° C | 69% | 1009.2 hPa | 0 mm | 0 m/s | - | - |
| 1777986627 | 19.44° C | 65% | 1009.1 hPa | 0 mm | 0 m/s | - | - |
| 1777986027 | 19.44° C | 61% | 1009.1 hPa | 0 mm | 0 m/s | - | - |
| 1777985427 | 20° C | 59% | 1009 hPa | 0 mm | 0 m/s | - | - |
| 1777984827 | 20° C | 58% | 1009 hPa | 0 mm | 0 m/s | - | - |
| 1777984227 | 20° C | 57% | 1009.1 hPa | 0 mm | 0 m/s | - | - |
| 1777983627 | 20° C | 56% | 1009 hPa | 0 mm | 0 m/s | - | - |
| 1777983027 | 20.56° C | 55% | 1008.9 hPa | 0 mm | 0 m/s | - | - |
| 1777982427 | 20.56° C | 56% | 1009 hPa | 0 mm | 0 m/s | - | - |
* Rain latest hour (hover to see other rain measurements)
** Current wind speed in m/s (hover to see current wind gust speed)